Regional Weather Roundup
Issued by NWS

Home | Current Version | Previous Version | Graphics & Text | Print | Product List | Glossary On
Versions: 1 2 3 4 5 6 7 8 9 10 11 12 13 14 15 16 17 18 19 20 21 22 23 24 25 26 27 28 29 30 31 32 33 34 35 36 37 38 39 40 41 42 43 44 45 46 47 48 49 50
921
ASUS43 KDTX 240410
RWRMI
MICHIGAN HOURLY REGIONAL WEATHER ROUNDUP
NATIONAL WEATHER SERVICE DETROIT/PONTIAC MI
1200 AM EDT MON JUL 24 2017

NOTE: "FAIR" INDICATES FEW OR NO CLOUDS BELOW 12,000 FEET WITH NO
SIGNIFICANT WEATHER AND/OR OBSTRUCTION TO VISIBILITY.

MIZ047>049-052>055-059>063-066>070-074>076-081>083-240500-
SOUTHEAST LOWER MICHIGAN

CITY           SKY/WX    TMP DP  RH WIND       PRES   REMARKS
ADRIAN         CLOUDY    69  67  93 CALM      29.80R
ALMA           MOCLDY    69  63  81 N7        29.83R
ANN ARBOR      MOCLDY    71  66  84 NW5       29.79R
BAD AXE        MOCLDY    65  63  94 NW8       29.78S
CARO           PTCLDY    65  63  93 NW3       29.79R
DETROIT CITY   PTCLDY    73  62  68 CALM      29.78R
DETROIT        CLOUDY    71  67  87 NW5       29.78R
FLINT          PTCLDY    67  63  87 W3        29.80R
GROSSE ILE     PTCLDY    72  64  77 NW3       29.76S
HILLSDALE      CLOUDY    70  63  78 NW5       29.82S
HOWELL         PTCLDY    67  65  93 CALM      29.80S

CITY           SKY/WX    TMP DP  RH WIND       PRES   REMARKS
JACKSON        MOCLDY    69  62  78 W6        29.82R
LAMBERTVILLE   CLOUDY    70  69  96 CALM      29.78S
LANSING        PTCLDY    70  62  76 NW5       29.82R
LAPEER         FAIR      63  63  97 CALM      29.80R FOG
MASON          CLEAR     68  63  82 N7        29.81R
MONROE         MOCLDY    70  69  97 CALM      29.77S
MT. CLEMENS    MOCLDY    67  64  91 CALM      29.76R
PONTIAC        CLOUDY    70  63  78 VRB3      29.78R
PORT HOPE        N/A     67  64  90 NW14G21   29.76R
PORT HURON     PTCLDY    64  64 100 CALM      29.77R FOG
TRI CITIES     MOCLDY    68  63  84 N10       29.81R
MIDLAND        MOCLDY    67  61  79 N5        29.81R
TROY           CLOUDY    72  61  67 NW6       29.80R
SAGINAW HB     PTCLDY    66  63  88 N5        29.79R
$$
MIZ043>046-050>051-056>058-064>065-071>073-077>080-240500-
SOUTHWEST LOWER MICHIGAN

CITY           SKY/WX    TMP DP  RH WIND       PRES   REMARKS
BATTLE CREEK   PTCLDY    71  65  81 NW5       29.83R
BENTON HARBOR  CLEAR     71  65  81 CALM      29.84R
BIG RAPIDS     CLEAR     64  60  87 NW7       29.84R
COLDWATER      MOCLDY    72  66  81 CALM      29.83R
FREMONT        FAIR      64  62  94 N8        29.84S
HOLLAND        CLEAR     70  63  78 N5        29.85R
GRAND RAPIDS   CLEAR     70  63  78 NW7       29.83R
IONIA          FAIR      68  61  76 NW6       29.82R
KALAMAZOO      PTCLDY    70  63  78 NW6       29.83R
LUDINGTON      CLOUDY    64  63  94 N10G18    29.86S
MARSHALL       CLEAR     71  66  84 NW3       29.82R
MOUNT PLEASANT CLEAR     66  59  77 N3        29.82R
MUSKEGON       PTCLDY    68  61  78 N8        29.86R
SOUTH HAVEN    CLEAR     70  69  94 N6        29.84R
$$
MIZ016>042-240500-
NORTHERN LOWER MICHIGAN

CITY           SKY/WX    TMP DP  RH WIND       PRES   REMARKS
ALPENA         CLOUDY    60  59  96 N15G21    29.85S
BEAVER ISLAND  MOCLDY    59  55  85 NE10G16   29.95R
BELLAIRE       CLOUDY    61  56  83 N8G18     29.90R
CADILLAC       CLOUDY    64  59  82 N8        29.86S
CHARLEVOIX     CLOUDY    61  55  81 NE13G18   29.94S
FRANKFORT      CLOUDY    66  61  84 N6        29.89R
GAYLORD        CLOUDY    58  54  86 NE12      29.90R
GRAYLING       CLOUDY    60  56  88 N8        29.88R
HARBOR SPRINGS CLOUDY    59  54  82 NE10G18   29.91S
HOUGHTON LAKE  CLOUDY    62  58  86 N10       29.86R
MANISTEE       CLOUDY    65  60  84 N8        29.87R
OSCODA         CLOUDY    63  60  91 N13G18    29.80S
PELLSTON       CLOUDY    59  55  87 NE10      29.92S
ROGERS CITY    RAIN      59  56  89 NE12G20   29.89S
TRAVERSE CITY  CLOUDY    65  59  81 NE12G21   29.87R
$$
MIZ007>008-015-240500-
EASTERN UPPER MICHIGAN

CITY           SKY/WX    TMP DP  RH WIND       PRES   REMARKS
KINROSS        CLEAR     55  53  93 N7        29.95S
MACKINAC ISLAN CLOUDY    58  58  99 NE12G17   29.93S
NEWBERRY       CLEAR     53  52  97 N6        29.97S
S. S. MARIE    CLEAR     58  52  80 N5        29.95S
MUNISING         N/A     56  54  93 N3        29.99S
$$
MIZ004>006-011>014-085-240500-
CENTRAL UPPER MICHIGAN

CITY           SKY/WX    TMP DP  RH WIND       PRES   REMARKS
MANISTIQUE     MOCLDY    56  53  89 N10       29.97R
ESCANABA       CLOUDY    60  55  83 N6        29.97R
MENOMINEE      CLOUDY    62  56  80 N9        29.96R
SAWYER-GWINN   CLEAR     54  51  91 N6        30.02R
$$
MIZ001>003-009>011-084-240500-
WESTERN UPPER MICHIGAN

CITY           SKY/WX    TMP DP  RH WIND       PRES   REMARKS
IRON MOUNTAIN  MOCLDY    57  52  83 N12       29.99S
HOUGHTON       CLEAR     48  45  89 CALM      30.02S
COPPER HARBOR    N/A     53  50  89 CALM      30.02S
IRONWOOD       FOG       56  56 100 CALM      30.05R VSB 1/4
$$

ABBREVIATIONS USED IN REMARKS
   TC - TEMPERATURE IN CELSIUS
  WCI - WIND CHILL INDEX
   HX - HEAT INDEX
  VSB - VISIBILITY





USA.gov is the U.S. government's official web portal to all federal, state and local government web resources and services.